Wind_Speed
3 3 4 4 4 3 3 3 3 3 3 4 5 5 5 5 5 5 5 5 5 6 6 5 5 5 5 5 6 6 6 6 6 6 6 6 6 7 7 7 6 6 5 5 5 6 6 6 7
4 4 4 4 3 3 2 3 4 4 4 4 5 5 5 5 5 6 6 6 6 6 6 7 7 7 7 7 7 7 7 7 7 7 7 6 7 7 7 7 6 6 6 6 6 6 7 7 7
4 4 4 4 3 3 2 3 3 4 4 4 5 5 4 5 5 6 6 6 7 7 7 7 7 7 7 8 7 7 7 8 8 7 7 7 8 8 7 7 6 6 6 6 6 7 7 7 7
4 4 4 3 3 3 3 3 3 4 4 5 5 4 5 6 6 6 6 6 7 7 8 8 7 8 8 7 7 7 7 8 7 7 7 7 8 8 8 7 7 6 6 6 7 7 7 7 8
4 4 3 3 2 3 3 4 4 4 4 5 5 4 5 5 6 6 6 7 7 7 7 8 8 8 8 8 7 8 8 7 7 6 7 7 7 8 8 7 7 7 7 7 7 7 7 8 8
4 3 3 3 3 3 3 3 3 4 4 5 5 5 5 5 5 6 6 7 7 7 7 7 8 8 9 8 8 8 8 8 8 7 7 7 8 8 8 8 8 8 8 8 8 8 8 9 9
3 3 3 3 2 3 3 3 4 4 4 5 5 4 4 5 5 5 6 6 6 7 7 7 8 8 9 9 8 8 8 8 8 8 8 8 8 8 8 8 8 8 9 9 9 9 9 10 10
3 3 3 2 2 3 4 4 4 5 4 5 5 5 4 4 5 6 6 6 6 6 7 8 7 8 8 9 9 9 9 9 9 9 8 9 9 9 9 9 9 9 9 9 9 9 10 10 9
4 4 3 3 3 3 4 4 4 5 4 4 5 5 5 5 5 5 5 6 6 6 6 7 8 8 8 9 9 9 10 10 10 10 10 10 10 10 9 9 9 9 9 9 10 10 11 10 10
4 4 4 4 4 4 4 5 5 5 5 5 5 5 5 5 5 5 5 6 6 7 7 8 8 9 9 9 9 9 10 10 11 10 10 10 10 10 10 9 9 9 10 11 11 11 10 10 10
5 5 5 5 5 5 5 5 6 6 6 6 6 6 6 6 6 5 5 6 7 8 8 8 9 9 9 10 10 10 10 10 11 11 11 11 11 10 10 10 10 10 11 12 12 11 11 11 11
4 5 5 5 5 5 5 5 6 6 6 6 6 6 6 6 6 6 6 6 7 8 8 9 9 9 9 10 10 10 10 11 11 11 11 11 10 11 11 11 11 11 12 12 12 12 12 11 11
5 5 5 6 6 6 7 6 7 6 6 6 7 7 7 7 6 7 7 7 7 8 8 9 10 10 10 10 10 11 11 11 11 11 11 11 11 11 11 11 11 12 12 12 11 11 11 11 11
5 5 6 6 6 7 7 7 8 7 7 7 8 8 8 7 7 7 7 8 8 8 9 10 10 10 10 10 10 11 11 11 11 12 11 11 11 11 11 11 11 11 12 12 12 11 11 11 11
5 6 6 7 7 8 8 8 8 8 8 8 9 9 8 8 8 8 8 8 8 9 9 10 10 10 11 10 10 10 11 11 11 11 10 10 10 10 10 10 11 12 12 12 12 12 12 11 11
5 6 7 7 7 8 9 9 9 9 9 8 9 9 9 9 9 9 9 9 9 9 10 10 11 11 11 11 11 11 11 11 10 10 10 9 10 10 10 11 11 11 12 12 12 12 12 12 11
6 6 7 8 8 9 9 10 10 10 10 10 10 10 10 11 11 10 11 11 11 11 11 11 12 12 12 13 13 12 11 11 11 10 10 10 10 11 11 10 11 11 12 12 12 12 12 12 12
6 7 8 9 9 10 10 11 11 12 11 11 11 11 11 12 12 12 12 12 13 13 13 12 13 13 14 14 13 12 12 12 11 11 10 10 11 11 11 11 11 11 11 12 12 12 12 12 12
8 9 10 10 10 11 11 11 12 11 12 12 12 12 13 13 13 13 14 14 13 13 13 13 14 14 14 14 13 13 12 12 12 12 11 11 12 12 12 12 11 12 12 13 12 12 13 13 13
9 10 11 11 11 11 11 11 11 12 13 13 13 14 15 14 15 15 15 15 15 14 14 14 14 14 14 14 14 13 13 13 13 12 12 12 12 13 13 12 13 13 13 13 13 13 13 14 14
10 10 11 11 12 12 12 11 11 12 14 14 14 15 16 16 16 16 16 16 16 16 15 15 14 14 14 14 14 14 14 13 13 13 13 13 13 14 14 13 14 14 14 14 14 14 14 15 15
10 11 12 12 12 12 13 13 13 13 14 15 14 15 15 16 16 16 16 16 16 16 16 16 15 15 15 15 15 15 15 15 15 15 14 14 14 15 15 15 15 16 15 15 15 15 15 16 16
12 12 12 12 13 12 13 14 13 14 15 15 15 15 16 15 15 15 15 15 15 15 15 16 16 15 15 16 16 16 16 16 16 16 16 16 16 16 16 17 17 17 17 17 17 17 17 17 17
12 13 13 12 12 12 12 14 14 15 16 16 16 16 16 15 15 16 16 16 15 14 14 15 16 16 16 16 17 17 17 17 17 17 17 16 17 17 17 17 17 17 18 18 18 18 18 18 17
13 13 12 12 11 12 12 15 16 16 17 17 16 16 16 16 16 16 16 16 15 15 15 16 17 17 17 17 17 17 18 18 18 18 18 18 18 18 18 18 18 18 19 19 19 19 20 20 19
13 13 12 12 11 12 13 15 17 17 18 18 18 17 17 17 17 16 16 16 16 16 16 17 18 19 19 19 19 19 19 20 20 20 20 20 20 20 20 20 20 20 20 20 20 21 21 22 21
14 14 14 14 14 14 15 15 17 18 19 20 19 18 18 18 18 18 17 17 17 18 18 18 19 20 20 20 20 21 21 21 22 22 22 22 22 22 21 22 21 21 22 22 22 22 23 23 23
16 16 15 16 16 16 15 17 18 19 20 20 20 20 20 20 19 19 19 19 19 19 19 20 21 21 22 22 22 23 23 23 23 24 24 24 23 23 23 23 23 23 23 24 24 24 24 25 25
16 17 17 17 17 17 17 18 19 20 21 22 22 21 21 20 21 21 21 21 21 21 22 22 23 23 24 24 24 25 25 25 25 25 26 25 25 25 25 25 26 26 26 26 26 26 26 26 26
17 17 17 18 18 19 20 21 21 22 23 23 23 23 22 22 22 23 23 23 23 23 23 24 25 26 26 26 26 26 27 27 27 27 27 27 27 27 27 27 28 28 28 28 27 27 27 27 28
Wind_Direction
190 188 188 195 204 208 218 224 233 236 239 238 241 247 249 254 258 259 259 258 263 266 266 269 272 278 290 294 293 293 293 285 281 279 276 286 291 294 299 304 306 305 302 304 300 308 316 318 320
192 194 192 193 198 202 224 238 237 239 241 244 246 251 253 257 255 258 261 261 265 267 268 271 274 278 285 291 291 295 293 286 282 281 279 284 289 293 300 300 301 304 299 299 298 302 313 314 317
188 192 197 193 202 212 228 237 236 236 237 243 246 253 255 257 258 258 260 261 266 268 270 273 278 282 285 291 294 298 295 291 284 278 277 286 288 291 295 298 302 306 304 301 303 307 313 310 309
189 188 191 191 197 213 232 249 245 242 239 245 249 256 259 260 263 263 265 268 270 270 270 272 277 281 284 289 295 297 302 297 288 281 278 286 287 289 290 294 300 302 304 309 308 307 312 313 311
186 186 187 191 208 229 241 256 254 249 244 250 257 263 264 265 265 265 270 273 274 274 271 270 272 276 279 285 295 302 304 297 291 286 286 288 289 290 293 294 297 297 301 307 312 307 310 313 311
184 188 188 193 215 241 250 256 254 255 260 257 262 269 267 269 268 270 273 275 277 278 278 276 276 278 281 284 293 303 302 295 294 293 290 289 290 292 297 294 295 298 299 301 303 304 305 306 307
183 184 200 206 234 243 253 261 267 260 265 269 270 272 271 273 272 274 281 281 279 280 282 282 282 282 284 286 292 298 301 299 296 293 289 289 290 289 288 294 294 296 297 301 302 303 303 300 300
200 193 217 224 246 258 258 264 272 272 277 280 279 282 283 282 275 276 282 283 283 284 285 287 289 286 287 289 293 297 299 300 297 292 289 287 286 285 289 290 295 296 297 301 304 305 303 301 300
219 217 233 239 252 267 268 263 269 275 277 280 282 284 286 282 279 278 281 282 285 287 287 292 294 292 292 294 295 293 293 293 294 292 290 288 285 287 290 292 298 297 302 304 307 305 303 302 300
223 230 239 240 250 259 268 267 266 270 274 276 279 281 281 280 281 283 283 283 287 289 291 294 297 295 293 294 297 294 291 290 290 291 290 287 284 286 289 292 294 299 304 304 305 304 302 304 302
221 229 233 235 250 260 269 268 273 275 275 276 281 281 277 280 279 282 287 288 291 295 295 298 304 301 297 297 298 299 296 294 292 290 290 288 287 288 288 292 295 300 302 302 302 302 304 308 310
225 238 242 245 256 263 267 271 274 276 281 279 278 278 278 279 277 279 287 293 297 299 303 305 310 309 306 304 302 302 301 299 294 292 290 288 289 289 288 291 293 296 302 304 303 300 299 302 306
231 241 246 250 257 262 265 272 274 272 280 282 279 278 279 277 274 277 282 290 296 300 301 302 306 310 311 309 305 304 303 302 299 295 291 290 291 291 290 291 294 297 300 303 305 305 301 301 302
242 247 250 254 258 262 264 266 271 271 281 282 280 278 278 278 277 278 283 288 292 295 301 303 303 306 309 308 307 304 304 303 302 298 292 290 289 289 290 291 294 298 300 302 302 300 299 299 301
248 250 253 256 261 266 268 269 274 276 278 279 278 278 279 279 280 281 283 287 289 292 296 298 299 300 304 307 307 305 306 305 304 302 294 289 289 289 289 292 296 298 299 299 300 300 299 300 301
248 257 260 262 264 267 268 273 278 276 276 279 277 277 279 281 283 282 281 282 286 290 294 297 296 298 301 304 306 304 304 303 302 301 297 292 291 291 290 292 297 300 300 299 298 300 299 298 298
250 261 269 272 272 273 274 274 277 281 275 276 279 280 281 280 280 281 280 280 283 285 287 290 292 294 297 300 302 302 302 300 298 298 295 291 291 294 292 294 296 298 298 297 297 298 297 296 296
258 267 273 278 282 280 280 279 278 277 277 278 281 281 282 282 279 280 282 280 281 281 283 283 285 289 292 295 298 300 298 297 294 291 290 290 292 294 294 297 297 298 297 296 297 296 296 295 294
258 266 274 279 284 284 284 282 282 280 281 281 281 282 283 284 281 282 282 281 280 280 281 283 285 288 289 291 294 295 295 295 294 292 291 293 294 294 297 293 295 298 298 296 296 295 294 294 293
259 265 273 278 282 287 288 284 284 285 285 286 284 282 283 286 285 282 281 280 281 280 279 281 284 287 288 287 287 288 288 291 293 292 291 292 294 295 295 294 294 295 296 295 295 293 293 292 291
262 268 274 277 284 287 288 284 282 285 286 287 286 284 284 284 285 284 282 281 281 281 280 279 282 283 284 283 283 284 285 288 290 293 293 292 293 295 295 295 295 295 295 295 295 293 292 291 290
264 268 274 278 281 285 287 288 285 285 286 288 288 286 285 285 284 282 280 280 281 281 279 277 278 281 281 282 283 284 284 286 287 289 290 291 293 295 295 293 294 295 294 293 293 292 291 291 290
267 271 275 279 281 282 283 287 289 286 288 289 289 287 288 288 286 283 282 280 281 281 279 277 276 277 280 283 283 283 283 284 284 285 286 288 290 292 292 292 293 294 294 293 292 291 291 290 289
270 272 273 277 282 286 284 285 287 287 287 289 290 289 288 288 287 285 283 282 281 282 281 280 279 278 279 283 282 281 282 282 283 284 285 286 288 289 290 290 291 292 293 292 292 292 293 291 289
269 272 278 282 286 289 282 283 287 284 285 289 290 288 285 285 284 282 283 282 281 282 283 282 281 280 280 282 282 282 281 280 281 281 282 283 285 286 287 287 288 290 291 291 291 292 293 292 288
271 272 274 277 278 279 278 280 285 285 287 288 287 287 285 282 282 282 283 282 281 283 285 284 283 282 282 281 281 281 281 280 279 279 280 281 282 284 284 285 287 286 287 289 290 290 291 290 288
270 272 274 272 273 276 277 279 281 282 283 285 286 287 284 282 281 280 281 282 282 282 284 285 284 283 281 282 281 279 280 279 278 278 278 279 282 282 283 284 285 286 287 287 289 290 289 288 288
271 272 272 274 277 276 278 281 278 280 281 283 286 286 285 282 279 278 279 280 280 281 283 284 285 284 282 283 284 281 280 280 278 277 278 278 279 280 281 282 283 285 286 287 288 288 288 287 287
273 273 272 274 277 277 279 278 279 282 284 284 284 285 283 282 281 278 279 280 279 280 283 286 284 284 283 284 283 282 280 281 279 277 278 277 278 280 281 282 283 283 284 285 286 286 287 287 286
276 275 275 275 277 276 277 280 278 280 284 285 285 282 281 281 281 280 280 281 281 281 283 284 284 285 284 283 282 282 281 280 280 279 277 278 279 279 279 282 283 282 283 283 284 285 285 285 284
Height
5861 5861 5862 5864 5865 5865 5865 5866 5865 5866 5867 5867 5867 5868 5868 5870 5871 5874 5872 5871 5871 5871 5872 5872 5872 5872 5872 5872 5871 5871 5870 5870 5870 5869 5869 5869 5868 5868 5869 5868 5868 5867 5867 5866 5866 5865 5864 5863 5862
5861 5862 5863 5864 5864 5864 5865 5865 5865 5866 5867 5867 5867 5868 5868 5869 5870 5870 5870 5870 5871 5871 5871 5871 5871 5871 5871 5871 5871 5870 5870 5869 5868 5868 5868 5867 5868 5868 5867 5867 5867 5867 5866 5866 5865 5865 5864 5863 5862
5861 5861 5863 5863 5863 5864 5865 5865 5865 5866 5866 5866 5867 5868 5868 5869 5869 5869 5869 5870 5870 5870 5871 5870 5871 5871 5870 5870 5870 5869 5868 5867 5867 5866 5867 5866 5867 5867 5866 5866 5866 5866 5865 5865 5865 5864 5863 5862 5861
5861 5862 5863 5863 5863 5864 5864 5865 5865 5866 5866 5866 5867 5867 5867 5868 5868 5869 5869 5869 5869 5870 5870 5870 5870 5870 5869 5869 5869 5868 5867 5866 5865 5865 5865 5865 5865 5865 5865 5865 5865 5865 5864 5864 5864 5863 5862 5861 5861
5860 5862 5863 5862 5863 5863 5864 5864 5865 5865 5866 5866 5866 5867 5867 5867 5868 5868 5868 5868 5868 5869 5869 5869 5869 5869 5868 5868 5868 5867 5866 5866 5865 5864 5864 5864 5864 5864 5864 5864 5864 5864 5863 5863 5863 5862 5861 5861 5860
5861 5861 5862 5862 5863 5863 5864 5864 5864 5865 5865 5865 5866 5866 5866 5867 5867 5867 5867 5867 5867 5868 5868 5868 5868 5868 5867 5867 5867 5866 5866 5865 5865 5864 5864 5864 5864 5864 5863 5863 5863 5863 5862 5862 5862 5861 5860 5859 5859
5861 5861 5861 5862 5862 5863 5864 5864 5864 5864 5865 5865 5865 5866 5866 5866 5866 5866 5866 5866 5867 5867 5867 5867 5867 5867 5866 5866 5866 5865 5865 5865 5864 5864 5863 5863 5863 5862 5862 5862 5862 5862 5861 5861 5860 5860 5859 5858 5857
5860 5862 5861 5861 5862 5863 5863 5863 5863 5864 5864 5865 5865 5865 5865 5866 5866 5866 5866 5866 5866 5866 5866 5866 5866 5866 5865 5865 5865 5864 5864 5864 5863 5863 5862 5862 5862 5861 5861 5861 5861 5860 5860 5860 5859 5859 5858 5857 5856
5860 5862 5861 5861 5862 5863 5863 5863 5863 5863 5864 5864 5864 5864 5865 5865 5865 5865 5865 5865 5865 5865 5865 5865 5864 5864 5864 5864 5863 5863 5863 5862 5862 5862 5861 5861 5861 5860 5860 5860 5859 5859 5859 5858 5858 5857 5857 5856 5855
5859 5860 5861 5861 5861 5862 5862 5863 5863 5863 5863 5863 5863 5864 5864 5864 5864 5864 5864 5864 5864 5864 5864 5864 5863 5863 5863 5862 5862 5861 5861 5861 5861 5860 5860 5860 5860 5859 5859 5859 5858 5858 5857 5857 5856 5856 5855 5855 5854
5858 5859 5860 5860 5861 5861 5862 5862 5862 5862 5862 5862 5863 5863 5863 5863 5863 5863 5863 5863 5863 5863 5863 5862 5862 5862 5861 5861 5861 5860 5859 5859 5859 5859 5858 5858 5858 5858 5858 5857 5857 5856 5856 5855 5855 5854 5854 5853 5852
5858 5858 5859 5860 5860 5861 5861 5861 5861 5861 5862 5862 5862 5862 5862 5862 5862 5862 5862 5862 5862 5861 5861 5861 5861 5860 5860 5859 5859 5858 5858 5857 5857 5857 5856 5856 5856 5856 5856 5856 5855 5855 5854 5854 5853 5853 5852 5851 5851
5857 5858 5858 5859 5859 5860 5860 5860 5861 5861 5860 5860 5860 5860 5861 5861 5861 5861 5861 5861 5861 5860 5860 5860 5860 5859 5859 5858 5857 5857 5856 5856 5855 5855 5854 5854 5854 5854 5854 5854 5853 5853 5852 5852 5851 5851 5850 5849 5849
5856 5856 5857 5858 5858 5859 5859 5859 5859 5859 5859 5859 5859 5859 5859 5859 5860 5860 5860 5860 5860 5859 5859 5859 5858 5858 5857 5857 5856 5855 5855 5854 5853 5853 5852 5852 5852 5852 5852 5852 5851 5851 5850 5850 5849 5849 5848 5848 5847
5855 5856 5856 5857 5857 5857 5858 5858 5858 5858 5858 5858 5858 5858 5857 5858 5858 5858 5858 5858 5858 5858 5858 5858 5857 5856 5856 5855 5854 5854 5853 5852 5852 5851 5850 5850 5850 5850 5850 5850 5849 5849 5848 5848 5847 5847 5846 5846 5845
5854 5854 5855 5855 5855 5856 5858 5857 5856 5856 5856 5856 5856 5856 5856 5856 5856 5856 5856 5856 5856 5856 5856 5856 5855 5855 5854 5854 5853 5852 5851 5850 5850 5849 5848 5848 5848 5848 5848 5848 5847 5847 5846 5846 5845 5845 5844 5844 5843
5853 5853 5853 5854 5854 5854 5855 5855 5854 5854 5854 5854 5854 5854 5854 5854 5854 5854 5854 5854 5854 5854 5854 5854 5853 5853 5853 5852 5851 5850 5849 5849 5848 5847 5847 5846 5846 5846 5845 5845 5845 5845 5844 5844 5843 5843 5842 5842 5842
5852 5852 5852 5852 5852 5852 5852 5852 5852 5851 5852 5852 5852 5852 5852 5852 5852 5852 5852 5852 5852 5852 5852 5852 5851 5851 5850 5850 5849 5848 5847 5847 5846 5846 5845 5845 5844 5844 5843 5843 5843 5843 5842 5842 5841 5840 5840 5840 5839
5850 5850 5850 5850 5850 5850 5850 5850 5850 5849 5849 5849 5849 5849 5849 5849 5849 5849 5849 5849 5849 5849 5849 5849 5848 5848 5847 5847 5847 5846 5845 5845 5844 5844 5843 5843 5842 5842 5841 5841 5841 5840 5840 5839 5839 5838 5838 5837 5837
5848 5848 5848 5848 5848 5848 5848 5848 5848 5847 5847 5847 5847 5846 5846 5846 5846 5846 5846 5846 5846 5845 5846 5845 5845 5845 5844 5844 5844 5843 5843 5842 5842 5842 5841 5841 5840 5840 5839 5839 5838 5838 5837 5837 5836 5836 5835 5834 5834
5846 5847 5847 5847 5846 5845 5845 5845 5845 5845 5844 5844 5844 5843 5843 5843 5843 5842 5842 5842 5842 5842 5842 5842 5842 5841 5841 5840 5840 5840 5840 5839 5839 5839 5839 5838 5838 5837 5837 5836 5836 5835 5834 5834 5833 5833 5832 5832 5831
5844 5844 5844 5844 5843 5843 5843 5842 5842 5842 5841 5841 5841 5840 5840 5839 5839 5839 5838 5838 5838 5838 5838 5838 5838 5838 5837 5836 5837 5837 5836 5836 5836 5836 5836 5835 5835 5834 5834 5833 5833 5832 5831 5831 5830 5830 5829 5828 5827
5841 5841 5841 5841 5840 5840 5840 5840 5840 5838 5838 5838 5837 5837 5836 5836 5835 5835 5834 5834 5834 5834 5834 5833 5833 5833 5833 5832 5833 5833 5832 5832 5832 5832 5832 5832 5831 5831 5830 5830 5829 5829 5828 5827 5827 5826 5825 5824 5824
5838 5838 5838 5837 5837 5838 5837 5837 5836 5835 5835 5834 5834 5833 5833 5832 5832 5831 5830 5830 5830 5830 5830 5829 5829 5829 5829 5828 5828 5828 5828 5828 5828 5828 5828 5828 5827 5827 5826 5826 5825 5825 5824 5823 5822 5822 5821 5820 5819
5835 5836 5835 5834 5834 5835 5834 5834 5833 5832 5831 5831 5830 5830 5829 5828 5828 5827 5827 5826 5826 5826 5826 5825 5825 5824 5824 5824 5823 5824 5824 5823 5823 5823 5823 5823 5823 5823 5822 5822 5821 5820 5820 5819 5818 5817 5816 5815 5814
5832 5832 5833 5833 5832 5832 5831 5830 5830 5828 5828 5827 5827 5826 5825 5824 5823 5823 5823 5822 5822 5821 5821 5821 5820 5820 5819 5819 5819 5818 5818 5818 5818 5818 5818 5818 5818 5818 5817 5817 5816 5815 5815 5814 5813 5812 5811 5810 5809
5829 5829 5829 5829 5828 5828 5828 5828 5827 5825 5824 5823 5822 5821 5821 5820 5819 5819 5818 5817 5817 5817 5816 5816 5815 5815 5814 5813 5813 5813 5812 5812 5812 5812 5812 5812 5812 5812 5812 5811 5811 5810 5809 5808 5808 5806 5805 5804 5803
5826 5825 5825 5825 5824 5824 5824 5823 5823 5821 5820 5819 5818 5817 5816 5816 5815 5814 5814 5813 5812 5812 5811 5810 5809 5809 5809 5808 5807 5806 5806 5806 5806 5806 5806 5806 5805 5805 5805 5805 5804 5804 5803 5802 5801 5800 5799 5797 5796
5822 5821 5820 5820 5820 5820 5819 5821 5818 5817 5815 5814 5813 5812 5811 5810 5810 5809 5809 5808 5807 5806 5805 5805 5804 5803 5802 5802 5801 5800 5800 5799 5799 5799 5799 5799 5798 5798 5798 5798 5797 5797 5796 5795 5794 5793 5791 5790 5789
5816 5817 5816 5817 5816 5815 5814 5817 5813 5812 5811 5809 5808 5807 5806 5805 5804 5804 5803 5802 5801 5801 5800 5799 5798 5796 5796 5795 5794 5793 5793 5792 5792 5792 5791 5791 5791 5791 5791 5790 5789 5789 5788 5787 5786 5785 5784 5783 5781